Regional Weather Roundup
Issued by NWS

Home | Current Version | Previous Version | Graphics & Text | Print | Product List | Glossary On
Versions: 1 2 3 4 5 6 7 8 9 10 11 12 13 14 15 16 17 18 19 20 21 22 23 24 25 26 27 28 29 30 31 32 33 34 35 36 37 38 39 40 41 42 43 44 45 46 47 48 49 50
000
ASUS43 KDMX 011906
RWRIA

WEATHER ROUNDUP FOR IOWA
NATIONAL WEATHER SERVICE DES MOINES IA
100 PM CST WED MAR 01 2017

NOTE: "FAIR" INDICATES FEW OR NO CLOUDS BELOW 12,000 FEET WITH NO
SIGNIFICANT WEATHER AND/OR OBSTRUCTIONS TO VISIBILITY.

* - THESE STATIONS ARE NOT NWS STATIONS...THUS NOT UNDER NWS
QUALITY CONTROL.  THEY ALSO DO NOT REPORT WEATHER SUCH
AS PRECIPITATION OR FOG.

IAZ001>003-012>014-020>022-031>034-043>046-012000-
   NORTHWEST IOWA

CITY           SKY/WX    TMP DP  RH WIND       PRES   REMARKS
SIOUX CITY     CLOUDY    37  27  67 NW21G28   30.08S WCI  26
STORM LAKE *   MOSUNNY   32  25  74 NW21G28   30.02R WCI  20
$$

IAZ055>058-069>071-079>083-090>094-012000-
   SOUTHWEST IOWA

CITY           SKY/WX    TMP DP  RH WIND       PRES   REMARKS
LAMONI         CLOUDY    38  28  67 NW20G26   30.03R WCI  28
$$

IAZ047>049-059>061-072>074-084-012000-
   CENTRAL IOWA

CITY           SKY/WX    TMP DP  RH WIND       PRES   REMARKS
MARSHALLTOWN   CLOUDY    35  30  82 NW23      29.93R WCI  23
PERRY *        CLOUDY    39  31  71 NW20G25   30.01R WCI  30
$$

IAZ004>006-015-016-023>025-035-036-012000-
   NORTH CENTRAL IOWA

CITY           SKY/WX    TMP DP  RH WIND       PRES   REMARKS
ESTHERVILLE    CLOUDY    34  27  75 NW22      29.96R WCI  22
MASON CITY     CLOUDY    32  26  78 NW20      29.93R WCI  20
IOWA FALLS *   CLOUDY    34  30  85 NW23      29.95R WCI  22
$$

IAZ007>011-017>019-026>030-037>042-050>054-066-012000-
   NORTHEAST IOWA

CITY           SKY/WX    TMP DP  RH WIND       PRES   REMARKS
CEDAR RAPIDS   CLOUDY    36  30  79 NW30G40   29.86R WCI  23
DUBUQUE        SNOW      31  28  89 NW23G31   29.77R VSB 1/2 WCI  18
$$

IAZ064-065-067-068-078-012000-
   EAST CENTRAL IOWA

CITY           SKY/WX    TMP DP  RH WIND       PRES   REMARKS
DAVENPORT      CLOUDY    36  28  75 NW31G43   29.79R WCI  22
$$

IAZ062-063-075>077-085>089-095>099-012000-
   SOUTHEAST IOWA

CITY           SKY/WX    TMP DP  RH WIND       PRES   REMARKS
BURLINGTON     CLOUDY    41  32  70 NW20G32   29.88R
OTTUMWA        CLOUDY    38  29  70 NW21G33   29.95R WCI  28
$$

ABBREVIATIONS USED IN REMARKS
   TC - TEMPERATURES IN CELSIUS
  WCI - WIND CHILL INDEX
   HX - HEAT INDEX
  VSB - VISIBILITY
$$





USA.gov is the U.S. government's official web portal to all federal, state and local government web resources and services.